Regional Weather Roundup
Issued by NWS

Home | Current Version | Previous Version | Graphics & Text | Print | Product List | Glossary On
Versions: 1 2 3 4 5 6 7 8 9 10 11 12 13 14 15 16 17 18 19 20 21 22 23 24 25 26 27 28 29 30 31 32 33 34 35 36 37 38 39 40 41 42 43 44 45 46 47 48 49 50
000
ASUS44 KMEG 210010
RWRTN
TENNESSEE HOURLY STATE WEATHER ROUNDUP
NATIONAL WEATHER SERVICE MEMPHIS TN
600 PM CST MON FEB 20 2017

TNZ002-004-019-021-049-052-054-088>092-210100-
WEST TENNESSEE

CITY           SKY/WX    TMP DP  RH WIND       PRES   REMARKS
MEMPHIS INTL   MOCLDY    73  52  47 SE6       29.97S
NWS MEMPHIS      N/A     74 N/A N/A MISG        N/A
JACKSON        CLOUDY    72  53  51 SE5       30.00F
UNION CITY     CLEAR     68  45  42 CALM      29.99F
PARIS          CLEAR     66  48  52 SE3       30.03S
HUNTINGDON     CLEAR     68  52  56 CALM      30.02S
$$

TNZ008-025-027-028-033-062-065-066-210100-
NORTH MIDDLE TENNESSEE

CITY           SKY/WX    TMP DP  RH WIND       PRES   REMARKS
NASHVILLE      MOCLDY    68  43  40 S6        30.06S
PORTLAND       CLEAR     66  45  45 SE3       30.07R
CLARKSVILLE    CLOUDY    68  46  45 S3        30.05R
SMYRNA         MOCLDY    65  46  50 CALM      30.07S
COOKEVILLE     CLEAR     66  43  42 S5        30.08R
GALLATIN       CLEAR     66  46  48 CALM      30.09R
CROSSVILLE     CLOUDY    61  44  53 CALM      30.13S
$$

TNZ061-075-076-078-094-096-097-210100-
SOUTH MIDDLE TENNESSEE

CITY           SKY/WX    TMP DP  RH WIND       PRES   REMARKS
FAYETTEVILLE   CLEAR     64  48  55 SE6       30.08S
TULLAHOMA      CLEAR     66  39  37 SE3       30.10S
MCMINNVILLE    CLEAR     64  45  48 CALM      30.09R
COLUMBIA       CLEAR     68  46  45 CALM      30.05R
SHELBYVILLE    CLEAR     64  48  55 SE5       30.09R
$$

TNZ017-018-042-046-047-210100-
NORTHEAST TENNESSEE

CITY           SKY/WX    TMP DP  RH WIND       PRES   REMARKS
TRI CITIES     MOCLDY    57  37  47 CALM      30.13S
ELIZABETHTON   DRIZZLE   54  41  62 CALM      30.14R
$$

TNZ012-013-036-069-073-074-210100-
CENTRAL EAST TENNESSEE

CITY           SKY/WX    TMP DP  RH WIND       PRES   REMARKS
KNOXVILLE      CLOUDY    62  43  49 N3        30.11S
OAK RIDGE      PTCLDY    60  45  57 CALM      30.12F
GATLINBURG     CLEAR     57  41  54 CALM      30.12R
MORRISTOWN     PTCLDY    59  45  58 CALM      30.12S
JACKSBORO      CLEAR     57  45  62 CALM      30.15F
$$

TNZ083-085-099-210100-
SOUTHEAST TENNESSEE

CITY           SKY/WX    TMP DP  RH WIND       PRES   REMARKS
CHATTANOOGA    CLOUDY    64  48  56 CALM      30.10S
$$

SKY/WX REPORTED AS FAIR MEANS FEW OR NO CLOUDS BELOW
12 THOUSAND FEET.





USA.gov is the U.S. government's official web portal to all federal, state and local government web resources and services.